Location: Haliburton Scout Reserve
(45.0900°N, 78.3200°W)
Time: 15:07:06
(UTC-04:00)

PCSat - Visible Passes

Search period start: 24 May 2022 00:00
Search period end: 03 June 2022 00:00
Orbit: 784 x 795 km, 67.0° (Epoch: 23 May)

Date Brightness Start Highest point End Pass type
(mag) Time Alt. Az. Time Alt. Az. Time Alt. Az.
24 May 12.4 01:08:40 10° N 01:11:23 14° NNE 01:14:06 10° ENE visible
24 May 10.3 02:50:43 10° NNW 02:56:03 53° NE 03:01:20 10° SE visible
24 May 10.6 04:34:42 10° NW 04:39:05 25° WSW 04:43:28 10° SSW visible
25 May 12.5 00:38:07 10° N 00:39:53 11° NNE 00:41:39 10° NE visible
25 May 10.8 02:19:41 10° NNW 02:24:50 41° NE 02:29:55 10° ESE visible
25 May 10.2 04:03:15 10° NW 04:08:08 35° WSW 04:12:58 10° S visible
26 May 11.2 01:48:42 10° NNW 01:53:34 32° NE 01:58:22 10° ESE visible
26 May 9.8 03:31:55 10° NW 03:37:07 47° WSW 03:41:11 16° S visible
27 May 11.6 01:17:45 10° NNW 01:22:14 25° NE 01:26:42 10° E visible
27 May 9.5 03:00:41 10° NW 03:06:04 64° WSW 03:09:22 23° SSE visible
28 May 11.8 00:46:51 10° N 00:50:52 21° NE 00:54:53 10° E visible
28 May 9.5 02:29:30 10° NNW 02:34:58 86° WSW 02:37:55 28° SSE visible
28 May 11.3 04:15:10 10° WNW 04:17:30 13° WSW 04:18:32 12° WSW visible
29 May 12.1 00:15:59 10° N 00:19:28 17° NE 00:22:56 10° ENE visible
29 May 9.7 01:58:23 10° NNW 02:03:50 72° ENE 02:06:40 29° SE visible
29 May 11.0 03:43:01 10° WNW 03:46:36 18° WSW 03:47:18 18° WSW visible
29 May 12.1 23:45:14 10° N 23:48:01 14° NNE 23:50:48 10° ENE visible
30 May 10.1 01:27:18 10° NNW 01:32:39 54° NE 01:35:35 26° ESE visible
30 May 10.6 03:11:20 10° NW 03:15:41 25° WSW 03:16:14 24° WSW visible
30 May 12.2 23:14:39 10° N 23:16:31 12° NNE 23:18:22 10° NE visible
31 May 10.6 00:56:16 10° NNW 01:01:26 41° NE 01:04:37 21° ESE visible
31 May 10.2 02:39:52 10° NW 02:44:43 34° WSW 02:45:17 33° SW visible
01 Jun 11.0 00:25:17 10° NNW 00:30:10 32° NE 00:33:45 16° ESE visible
01 Jun 9.9 02:08:32 10° NW 02:13:42 46° WSW 02:14:25 43° SW visible
01 Jun 11.3 23:54:19 10° NNW 23:58:51 26° NE 00:02:58 12° E visible
02 Jun 9.6 01:37:16 10° NW 01:42:39 63° WSW 01:43:37 53° SSW visible
02 Jun 11.6 23:23:24 10° N 23:27:29 21° NE 23:31:31 10° E visible
